TimeGMT,TemperatureF,Dew PointF,Humidity,Sea Level PressureIn,VisibilityMPH,Wind Direction,Wind SpeedMPH,Gust SpeedMPH,PrecipitationIn,Events,Conditions,WindDirDegrees,DateUTC
12:00 AM,45,44,96,30.12,,SW,4.5,,,,,230,2012-11-08 00:00:00
8:00 AM,42.8,42.8,100,30.06,6.2,WSW,8.1,-,N/A,,Partly Cloudy,250,2012-11-08 08:00:00
8:30 AM,41.0,41.0,100,30.06,6.2,WSW,5.8,-,N/A,,Partly Cloudy,240,2012-11-08 08:30:00
9:00 AM,42.8,42.8,100,30.06,6.2,SW,6.9,-,N/A,,Partly Cloudy,230,2012-11-08 09:00:00
9:30 AM,44.6,44.6,100,30.06,6.2,SW,5.8,-,N/A,,Mostly Cloudy,230,2012-11-08 09:30:00
10:00 AM,44.6,44.6,100,30.09,6.2,WSW,6.9,-,N/A,,Mostly Cloudy,250,2012-11-08 10:00:00
10:30 AM,44.6,44.6,100,30.09,6.2,WSW,9.2,-,N/A,,Scattered Clouds,250,2012-11-08 10:30:00
11:00 AM,46.4,44.6,93,30.09,6.2,WSW,9.2,-,N/A,,Mostly Cloudy,250,2012-11-08 11:00:00
11:30 AM,48.2,44.6,87,30.06,6.2,WSW,4.6,-,N/A,,Mostly Cloudy,240,2012-11-08 11:30:00
12:00 PM,46,45,96,30.09,4,West,8.9,,,Rain,Light Rain,260,2012-11-08 12:00:00
12:00 PM,46.4,44.6,93,30.06,3.7,West,8.1,-,N/A,Rain,Light Rain,260,2012-11-08 12:00:00
12:30 PM,48.2,46.4,93,30.04,6.2,SW,10.4,-,N/A,,Partly Cloudy,230,2012-11-08 12:30:00
1:00 PM,48.2,44.6,87,30.04,6.2,SW,8.1,-,N/A,,Mostly Cloudy,220,2012-11-08 13:00:00
1:30 PM,48.2,44.6,87,30.01,6.2,WSW,9.2,-,N/A,,Mostly Cloudy,240,2012-11-08 13:30:00
2:00 PM,48.2,42.8,82,30.01,6.2,WSW,10.4,-,N/A,,Mostly Cloudy,240,2012-11-08 14:00:00
2:30 PM,48.2,44.6,87,30.01,6.2,SW,10.4,-,N/A,,Mostly Cloudy,230,2012-11-08 14:30:00
3:00 PM,50.0,44.6,82,29.98,6.2,SSW,9.2,-,N/A,,Mostly Cloudy,210,2012-11-08 15:00:00
3:30 PM,48.2,44.6,87,29.98,6.2,SSW,8.1,-,N/A,,Mostly Cloudy,200,2012-11-08 15:30:00
4:00 PM,46.4,44.6,93,29.95,6.2,South,12.7,-,N/A,,Scattered Clouds,190,2012-11-08 16:00:00
4:30 PM,46.4,44.6,93,29.92,6.2,South,13.8,-,N/A,,Scattered Clouds,190,2012-11-08 16:30:00
5:00 PM,44.6,44.6,100,29.92,6.2,South,15.0,-,N/A,,Mostly Cloudy,190,2012-11-08 17:00:00
6:00 PM,46,43,87,29.91,19,SSW,20.1,,,,Partly Cloudy,210,2012-11-08 18:00:00
6:00 PM,46.4,42.8,87,29.89,6.2,SSW,20.7,-,N/A,,Mostly Cloudy,210,2012-11-08 18:00:00
7:00 PM,46.4,42.8,87,29.86,6.2,SSW,20.7,-,N/A,,Mostly Cloudy,210,2012-11-08 19:00:00